Flag for Canada Weather past 2 weeks in St. John's, Newfoundland and Labrador, Canada

Now
63 °F

Clear.


Feels Like: 63 °F
Forecast: 60 / 76 °F
Wind: 15 mph from West

Location: St. John's

Current Time: Aug 28, 2015 at 9:51:05 PM

Latest Report: Aug 28, 2015 at 9:30 PM


Visibility: 15 mi

Pressure: 29.84 "Hg

Humidity: 94%

Dew point: 61 °F

Location of St. John'sLocation

Historic Weather in St. John's — Graph

°F

St. John's temperature yesterday

Maximum temperature yesterday: 72 °F (at 1:30 PM)
Minimum temperature yesterday: 50 °F (at 1:30 AM)
Average temperature yesterday: 59 °F

Past Weeks' High & Low Weather Summary

 TemperatureHumidityPressure
High81 °F (Aug 18, 1:30 PM)100% (Aug 14, 7:30 AM)30.43 "Hg (Aug 14, 7:30 AM)
Low50 °F (Aug 26, 1:30 AM)51% (Aug 15, 2:30 PM)29.80 "Hg (Aug 28, 4:30 PM)
Average64 °F84%30.12 "Hg
* Reported Aug 13 8:30 PM — Aug 28 8:30 PM, St. John's, Weather by CustomWeather, © 2015

Note: Actual official high and low records may vary slightly from our data, if they occured in-between our weather recording intervals... More about our weather records

Advertising

St. John's weather history for previous 24 hours

 ConditionsComfort  
Time TempWeatherWind HumidityBarometerVisibility
8:30 PM
Fri, Aug 28
64 °FPassing clouds.14 mph88%29.83 "Hg15 mi
7:30 PM66 °FPassing clouds.15 mph88%29.81 "Hg15 mi
6:30 PM70 °FScattered clouds.15 mph78%29.80 "Hg15 mi
5:30 PM72 °FScattered clouds.15 mph78%29.80 "Hg15 mi
4:30 PM72 °FPartly sunny.10 mph78%29.80 "Hg15 mi
3:30 PM64 °FDrizzle. Low clouds.13 mph94%29.82 "Hg15 mi
2:30 PM63 °FDrizzle. Low clouds.18 mph94%29.84 "Hg8 mi
1:30 PM63 °FDrizzle. Low clouds.22 mph94%29.85 "Hg15 mi
12:30 PM59 °FSprinkles. Low clouds.20 mph100%29.90 "Hg10 mi
11:30 AM59 °FLots of rain. Fog.21 mph94%29.93 "Hg3 mi
10:30 AM59 °FOvercast.17 mph88%29.91 "Hg15 mi
9:30 AM59 °FOvercast.23 mph88%29.95 "Hg15 mi
8:30 AM57 °FMore clouds than sun.20 mph88%29.96 "Hg15 mi
7:30 AM55 °FPartly sunny.22 mph94%29.99 "Hg15 mi
6:30 AM55 °FPassing clouds.17 mph94%30.01 "Hg15 mi
5:30 AM54 °FPassing clouds.17 mph94%30.02 "Hg15 mi
5:16 AM54 °FPassing clouds.14 mph94%30.02 "Hg15 mi
4:30 AM54 °FPartly cloudy.15 mph94%30.02 "Hg15 mi
3:30 AM52 °FPassing clouds.12 mph94%30.04 "Hg15 mi
2:30 AM52 °FPassing clouds.6 mph94%30.07 "Hg15 mi
1:30 AM50 °FPassing clouds.7 mph94%30.09 "Hg15 mi
12:30 AM50 °FPassing clouds.7 mph94%30.10 "Hg15 mi
11:30 PM
Thu, Aug 27
52 °FPassing clouds.8 mph88%30.11 "Hg15 mi
10:30 PM54 °FPassing clouds.10 mph88%30.12 "Hg15 mi
9:30 PM55 °FPassing clouds.12 mph82%30.11 "Hg15 mi
Weather by CustomWeather, © 2015

See weather overviewHow to use our weather pages